| time (UTC) | temp C | wind direction | speed KPH | gust KPH | rain 1hr cm | rain 24hr cm | rain mn cm | humidity % | barometer mb |
| 20260502163505 | 26 | 258 | 3.2 | 8.0 | 0.00 | 0.00 | 0.00 | 44 | 1015.3 |
| 20260502163005 | 26 | 307 | 3.2 | 8.0 | 0.00 | 0.00 | 0.00 | 43 | 1015.2 |
| 20260502161505 | 25 | 125 | 1.6 | 4.8 | 0.00 | 0.00 | 0.00 | 45 | 1015.6 |
| 20260502161005 | 25 | 66 | 3.2 | 8.0 | 0.00 | 0.00 | 0.00 | 46 | 1015.7 |
| 20260502160504 | 25 | 330 | 4.8 | 8.0 | 0.00 | 0.00 | 0.00 | 46 | 1015.6 |
| 20260502151504 | 26 | 178 | 3.2 | 11.3 | 0.00 | 0.00 | 0.00 | 44 | 1016.3 |
| 20260502151004 | 26 | 229 | 4.8 | 11.3 | 0.00 | 0.00 | 0.00 | 44 | 1016.3 |
| 20260502130504 | 26 | 119 | 8.0 | 12.9 | 0.00 | 0.00 | 0.00 | 40 | 1018.1 |
| 20260502123505 | 26 | 247 | 3.2 | 11.3 | 0.00 | 0.00 | 0.00 | 40 | 1018.6 |
| 20260502121504 | 25 | 310 | 1.6 | 11.3 | 0.00 | 0.00 | 0.00 | 41 | 1018.6 |
| 20260502121005 | 25 | 94 | 3.2 | 8.0 | 0.00 | 0.00 | 0.00 | 42 | 1018.8 |
| 20260502120504 | 25 | 306 | 1.6 | 4.8 | 0.00 | 0.00 | 0.00 | 43 | 1019.0 |
| 20260502114504 | 24 | 293 | 3.2 | 11.3 | 0.00 | 0.00 | 0.00 | 41 | 1019.1 |
| 20260502114004 | 24 | 165 | 4.8 | 8.0 | 0.00 | 0.00 | 0.00 | 41 | 1019.0 |
| 20260502113505 | 25 | 241 | 0.0 | 8.0 | 0.00 | 0.00 | 0.00 | 39 | 1019.3 |
| 20260502113004 | 23 | 170 | 4.8 | 11.3 | 0.00 | 0.00 | 0.00 | 44 | 1019.3 |
| 20260502111504 | 24 | 135 | 4.8 | 8.0 | 0.00 | 0.00 | 0.00 | 44 | 1019.5 |
| 20260502111005 | 23 | 279 | 0.0 | 8.0 | 0.00 | 0.00 | 0.00 | 44 | 1019.6 |
| 20260502110504 | 23 | 167 | 4.8 | 8.0 | 0.00 | 0.00 | 0.00 | 44 | 1019.6 |
| 20260502110005 | 23 | 127 | 1.6 | 8.0 | 0.00 | 0.00 | 0.00 | 45 | 1019.6 |
| 20260502103504 | 22 | 95 | 8.0 | 11.3 | 0.00 | 0.00 | 0.00 | 47 | 1019.7 |
| 20260502103004 | 22 | 145 | 9.7 | 12.9 | 0.00 | 0.00 | 0.00 | 45 | 1020.2 |
| 20260502101504 | 22 | 120 | 3.2 | 11.3 | 0.00 | 0.00 | 0.00 | 47 | 1020.3 |
| 20260502101003 | 21 | 60 | 3.2 | 8.0 | 0.00 | 0.00 | 0.00 | 45 | 1020.3 |
| 20260502100503 | 21 | 100 | 4.8 | 8.0 | 0.00 | 0.00 | 0.00 | 46 | 1020.3 |
| 20260502091506 | 20 | 253 | 3.2 | 4.8 | 0.00 | 0.00 | 0.00 | 42 | 1021.0 |
| 20260502091006 | 20 | 209 | 1.6 | 11.3 | 0.00 | 0.00 | 0.00 | 48 | 1021.0 |
| 20260502090507 | 19 | 72 | 3.2 | 8.0 | 0.00 | 0.00 | 0.00 | 51 | 1021.0 |
| 20260502071005 | 13 | 241 | 0.0 | 3.2 | 0.00 | 0.00 | 0.00 | 69 | 1021.8 |
| 20260502070505 | 13 | 267 | 0.0 | 3.2 | 0.00 | 0.00 | 0.00 | 69 | 1021.7 |
| 20260502064505 | 12 | 135 | 1.6 | 3.2 | 0.00 | 0.00 | 0.00 | 70 | 1022.0 |
| 20260502064005 | 12 | 232 | 1.6 | 4.8 | 0.00 | 0.00 | 0.00 | 72 | 1022.0 |
| 20260502063006 | 11 | 238 | 0.0 | 8.0 | 0.00 | 0.00 | 0.00 | 74 | 1022.1 |
| 20260502061006 | 10 | 251 | 0.0 | 3.2 | 0.00 | 0.00 | 0.00 | 78 | 1022.0 |
| 20260502060505 | 10 | 302 | 0.0 | 3.2 | 0.00 | 0.00 | 0.00 | 78 | 1022.0 |
| 20260502060005 | 9 | 121 | 1.6 | 3.2 | 0.00 | 0.00 | 0.00 | 80 | 1022.0 |
| 20260502054506 | 8 | 142 | 0.0 | 3.2 | 0.00 | 0.00 | 0.00 | 82 | 1022.0 |
| 20260502053005 | 8 | 292 | 0.0 | 3.2 | 0.00 | 0.00 | 0.00 | 82 | 1022.0 |
| 20260502051506 | 5 | 274 | 0.0 | 0.0 | 0.00 | 0.00 | 0.00 | 90 | 1022.0 |
| 20260502051006 | 5 | 274 | 0.0 | 0.0 | 0.00 | 0.00 | 0.00 | 91 | 1022.0 |
| 20260502050505 | 5 | 274 | 0.0 | 0.0 | 0.00 | 0.00 | 0.00 | 92 | 1022.0 |
| 20260502050005 | 4 | 273 | 0.0 | 0.0 | 0.00 | 0.00 | 0.00 | 92 | 1021.7 |
| 20260502044505 | 3 | 270 | 0.0 | 0.0 | 0.00 | 0.00 | 0.00 | 94 | 1021.7 |
| 20260502044005 | 3 | 270 | 0.0 | 0.0 | 0.00 | 0.00 | 0.00 | 94 | 1021.7 |
| 20260502043005 | 3 | 270 | 0.0 | 0.0 | 0.00 | 0.00 | 0.00 | 94 | 1022.0 |
| 20260502041505 | 3 | 265 | 0.0 | 0.0 | 0.00 | 0.00 | 0.00 | 94 | 1022.0 |
| 20260502041005 | 3 | 264 | 0.0 | 0.0 | 0.00 | 0.00 | 0.00 | 94 | 1022.0 |
| 20260502034505 | 3 | 274 | 0.0 | 0.0 | 0.00 | 0.00 | 0.00 | 93 | 1022.0 |
| 20260502034005 | 3 | 274 | 0.0 | 0.0 | 0.00 | 0.00 | 0.00 | 93 | 1021.8 |
| 20260502033005 | 3 | 274 | 0.0 | 0.0 | 0.00 | 0.00 | 0.00 | 93 | 1022.0 |
| 20260502031506 | 3 | 274 | 0.0 | 0.0 | 0.00 | 0.00 | 0.00 | 93 | 1022.0 |
| 20260502031005 | 3 | 274 | 0.0 | 0.0 | 0.00 | 0.00 | 0.00 | 92 | 1022.0 |
| 20260502030005 | 3 | 274 | 0.0 | 3.2 | 0.00 | 0.00 | 0.00 | 92 | 1022.0 |
| 20260502024005 | 4 | 274 | 0.0 | 0.0 | 0.00 | 0.00 | 0.00 | 91 | 1022.0 |
| 20260502023506 | 4 | 274 | 0.0 | 0.0 | 0.00 | 0.00 | 0.00 | 91 | 1021.7 |
| 20260502023005 | 4 | 274 | 0.0 | 0.0 | 0.00 | 0.00 | 0.00 | 91 | 1022.0 |
| 20260502021505 | 4 | 274 | 0.0 | 0.0 | 0.00 | 0.00 | 0.00 | 91 | 1022.0 |
| 20260502020505 | 4 | 274 | 0.0 | 0.0 | 0.00 | 0.00 | 0.00 | 90 | 1022.0 |
| 20260502020005 | 5 | 274 | 0.0 | 0.0 | 0.00 | 0.00 | 0.00 | 90 | 1022.0 |
| 20260502014505 | 5 | 274 | 0.0 | 0.0 | 0.00 | 0.00 | 0.00 | 90 | 1021.9 |
| 20260502014005 | 5 | 274 | 0.0 | 0.0 | 0.00 | 0.00 | 0.00 | 90 | 1021.7 |
| 20260502013506 | 5 | 274 | 0.0 | 0.0 | 0.00 | 0.00 | 0.00 | 90 | 1022.0 |
| 20260502013005 | 5 | 274 | 0.0 | 0.0 | 0.00 | 0.00 | 0.00 | 90 | 1022.0 |
| 20260502011505 | 5 | 274 | 0.0 | 0.0 | 0.00 | 0.00 | 0.00 | 89 | 1022.0 |
| 20260502011005 | 5 | 274 | 0.0 | 0.0 | 0.00 | 0.00 | 0.00 | 89 | 1022.0 |
| 20260502010505 | 5 | 273 | 0.0 | 0.0 | 0.00 | 0.00 | 0.00 | 89 | 1021.7 |
| 20260502010005 | 5 | 273 | 0.0 | 3.2 | 0.00 | 0.00 | 0.00 | 89 | 1022.0 |
| 20260502004005 | 5 | 273 | 0.0 | 0.0 | 0.00 | 0.00 | 0.00 | 88 | 1022.4 |
| 20260502003505 | 5 | 272 | 0.0 | 0.0 | 0.00 | 0.00 | 0.00 | 87 | 1022.3 |
| 20260502003005 | 5 | 263 | 0.0 | 4.8 | 0.00 | 0.00 | 0.00 | 87 | 1022.2 |
| 20260502001505 | 5 | 267 | 0.0 | 0.0 | 0.00 | 0.00 | 0.00 | 88 | 1022.4 |
| 20260502001005 | 5 | 267 | 0.0 | 3.2 | 0.00 | 0.00 | 0.00 | 87 | 1022.4 |
| 20260502000505 | 5 | 267 | 1.6 | 4.8 | 0.00 | 0.00 | 0.00 | 87 | 1022.4 |
| 20260502000005 | 5 | 275 | 0.0 | 0.0 | 0.00 | 0.00 | 0.00 | 87 | 1022.4 |
| 20260501234505 | 6 | 275 | 0.0 | 3.2 | 0.00 | 0.00 | 0.00 | 87 | 1022.7 |
| 20260501234005 | 6 | 274 | 0.0 | 0.0 | 0.00 | 0.00 | 0.00 | 86 | 1022.6 |
| 20260501233505 | 6 | 274 | 0.0 | 0.0 | 0.00 | 0.00 | 0.00 | 86 | 1022.5 |
| 20260501231505 | 6 | 272 | 1.6 | 4.8 | 0.00 | 0.00 | 0.00 | 85 | 1022.6 |
| 20260501231005 | 6 | 272 | 1.6 | 3.2 | 0.00 | 0.00 | 0.00 | 84 | 1022.7 |
| 20260501230505 | 7 | 275 | 3.2 | 4.8 | 0.00 | 0.00 | 0.00 | 83 | 1022.7 |
| 20260501230005 | 7 | 274 | 3.2 | 8.0 | 0.00 | 0.00 | 0.00 | 84 | 1022.7 |
| 20260501224505 | 7 | 312 | 4.8 | 8.0 | 0.00 | 0.00 | 0.00 | 83 | 1022.4 |
| 20260501223506 | 7 | 261 | 1.6 | 4.8 | 0.00 | 0.00 | 0.00 | 83 | 1022.5 |
| 20260501223005 | 7 | 274 | 1.6 | 4.8 | 0.00 | 0.00 | 0.00 | 83 | 1022.7 |
| 20260501221505 | 7 | 278 | 3.2 | 4.8 | 0.00 | 0.00 | 0.00 | 83 | 1022.7 |
| 20260501221005 | 7 | 273 | 1.6 | 4.8 | 0.00 | 0.00 | 0.00 | 83 | 1022.7 |
| 20260501220505 | 7 | 271 | 1.6 | 4.8 | 0.00 | 0.00 | 0.00 | 83 | 1022.7 |
| 20260501220005 | 7 | 275 | 3.2 | 8.0 | 0.00 | 0.00 | 0.00 | 82 | 1022.7 |
| 20260501214004 | 8 | 267 | 1.6 | 3.2 | 0.00 | 0.00 | 0.00 | 79 | 1022.7 |
| 20260501213005 | 8 | 282 | 1.6 | 4.8 | 0.00 | 0.00 | 0.00 | 79 | 1022.7 |
| 20260501211505 | 8 | 276 | 0.0 | 3.2 | 0.00 | 0.00 | 0.00 | 77 | 1022.7 |
| 20260501211005 | 8 | 273 | 3.2 | 4.8 | 0.00 | 0.00 | 0.00 | 77 | 1022.7 |
| 20260501210505 | 9 | 274 | 3.2 | 3.2 | 0.00 | 0.00 | 0.00 | 75 | 1022.7 |
| 20260501210004 | 9 | 278 | 3.2 | 4.8 | 0.00 | 0.00 | 0.00 | 75 | 1022.7 |
| 20260501204505 | 9 | 275 | 3.2 | 3.2 | 0.00 | 0.00 | 0.00 | 74 | 1022.7 |
| 20260501203005 | 10 | 274 | 3.2 | 4.8 | 0.00 | 0.00 | 0.00 | 72 | 1022.4 |
| 20260501201505 | 10 | 281 | 3.2 | 4.8 | 0.00 | 0.00 | 0.00 | 70 | 1022.4 |
| 20260501200005 | 11 | 275 | 1.6 | 4.8 | 0.00 | 0.00 | 0.00 | 66 | 1022.7 |
| 20260501194005 | 11 | 275 | 3.2 | 4.8 | 0.00 | 0.00 | 0.00 | 65 | 1022.4 |
| 20260501193505 | 12 | 280 | 3.2 | 4.8 | 0.00 | 0.00 | 0.00 | 65 | 1022.4 |
| 20260501193004 | 12 | 274 | 3.2 | 4.8 | 0.00 | 0.00 | 0.00 | 64 | 1022.4 |
| 20260501191505 | 12 | 270 | 3.2 | 4.8 | 0.00 | 0.00 | 0.00 | 60 | 1022.1 |
| 20260501191004 | 12 | 279 | 3.2 | 4.8 | 0.00 | 0.00 | 0.00 | 60 | 1022.4 |
| 20260501190505 | 13 | 272 | 3.2 | 4.8 | 0.00 | 0.00 | 0.00 | 58 | 1022.4 |
| 20260501184505 | 14 | 271 | 1.6 | 4.8 | 0.00 | 0.00 | 0.00 | 59 | 1022.2 |
| 20260501184005 | 15 | 275 | 3.2 | 4.8 | 0.00 | 0.00 | 0.00 | 58 | 1022.4 |
| 20260501183505 | 15 | 269 | 3.2 | 4.8 | 0.00 | 0.00 | 0.00 | 57 | 1022.0 |
| 20260501183005 | 16 | 265 | 3.2 | 4.8 | 0.00 | 0.00 | 0.00 | 55 | 1022.4 |
| 20260501181505 | 17 | 277 | 3.2 | 8.0 | 0.00 | 0.00 | 0.00 | 51 | 1022.1 |
| 20260501181005 | 18 | 274 | 1.6 | 4.8 | 0.00 | 0.00 | 0.00 | 46 | 1022.2 |
| 20260501180504 | 21 | 273 | 0.0 | 3.2 | 0.00 | 0.00 | 0.00 | 40 | 1022.0 |
| 20260501180004 | 21 | 239 | 0.0 | 4.8 | 0.00 | 0.00 | 0.00 | 35 | 1022.0 |
| 20260501174504 | 21 | 218 | 1.6 | 4.8 | 0.00 | 0.00 | 0.00 | 34 | 1022.4 |
| 20260501174005 | 21 | 145 | 3.2 | 8.0 | 0.00 | 0.00 | 0.00 | 33 | 1022.0 |
| 20260501173505 | 21 | 137 | 3.2 | 8.0 | 0.00 | 0.00 | 0.00 | 33 | 1022.3 |
| 20260501173004 | 21 | 165 | 1.6 | 12.9 | 0.00 | 0.00 | 0.00 | 34 | 1022.3 |
| 20260501171505 | 21 | 106 | 11.3 | 20.9 | 0.00 | 0.00 | 0.00 | 31 | 1022.0 |
| 20260501171004 | 21 | 117 | 3.2 | 12.9 | 0.00 | 0.00 | 0.00 | 32 | 1022.0 |
| 20260501170504 | 21 | 130 | 4.8 | 12.9 | 0.00 | 0.00 | 0.00 | 31 | 1022.0 |
| 20260501164005 | 22 | 101 | 8.0 | 24.1 | 0.00 | 0.00 | 0.00 | 30 | 1022.4 |